Погода в Калачево

Россия / Челябинская область     54°56′20″N   61°32′17″E
темп.,
°C
ветер,
м/с
пор.,
м/с
влажн.,
%
обл.,
%
осадки,
мм/ч
давл.,
гПа
погр.,
м
8 марта, пн
пн823:00−14сз5128667 0.3 1009272
02:00−18зсз48910 0.0 1010106
05:00−19з34890 0.0 101133
08:00−19ююз348733 0.0 101154
11:00−13ююз6118867 0.0 1010385
14:00−8ююз91389100 0.6 1007974
17:00−5ююз81388100 0.7 10061111
20:00−7ююз8168089 0.0 1005512
9 марта, вт
вт923:00−6юз7178271 0.0 1007487
02:00−7юз6138797 0.0 1007311
05:00−6ююз7158899 0.0 1007481
08:00−5ююз81685100 0.0 1004698
11:00−3юз10177967 0.0 10041133
14:00−3з9147261 0.1 10061475
17:00−4з5107738 0.1 1010532
20:00−9зюз337892 0.0 101221
10 марта, ср
ср1023:00−11ююз127796 0.0 101221
02:00−11ююв2286100 0.0 101121
05:00−11юв3388100 0.0 100868
08:00−9юв51195100 0.4 1005359
11:00−6юв6995100 1.2 1001430
14:00−4ююв6995100 0.9 998562
17:00−2ю5895100 1.9 997641
20:00−11юз488566 0.2 997135
11 марта, чт
чт1123:00−14зюз6128766 0.2 998277
02:00−14зюз7129295 0.1 999305
05:00−15сз9159298 0.6 1001709
08:00−16сз81494100 0.4 1002704
11:00−16ссз81290100 0.8 1005796
14:00−13ссз71191100 0.5 1007959
17:00−13сз71080100 0.8 10091116
20:00−18зсз4118694 0.0 1012235
12 марта, пт
пт1223:00−17зсз6119097 0.2 1015591
02:00−21зсз488899 0.0 1015139
05:00−22зсз3596100 0.1 101685
08:00−22сз2397100 0.1 101961
11:00−19с348994 0.1 1021392
14:00−16зсз357693 0.0 1022685
17:00−13юз358896 0.0 1022400
20:00−15юз349499 0.1 102484